Regional Weather Roundup
Issued by NWS Charleston, SC

Current Version | Previous Version | Graphics & Text | Print | Product List | Glossary On
Versions: 1 2 3 4 5 6 7 8 9 10 11 12 13 14 15 16 17 18 19 20 21 22 23 24 25 26 27 28 29 30 31 32 33 34 35 36 37 38 39 40 41 42 43 44 45 46 47 48 49 50
000
ASUS42 KCHS 280712
RWRCHS

REGIONAL WEATHER ROUNDUP
NATIONAL WEATHER SERVICE CHARLESTON SC
300 AM EDT WED JUN 28 2017

NOTE: "FAIR" INDICATES FEW OR NO CLOUDS BELOW 12,000 FEET WITH NO
SIGNIFICANT WEATHER AND/OR OBSTRUCTIONS TO VISIBILITY.

NOT ALL STATIONS ARE QUALITY CONTROLLED. USE DATA WITH CAUTION...
ESPECIALLY DEWPOINT OBSERVATIONS.

SCZ027-030-031-034>040-042>050-280800-
...SOUTHEAST SOUTH CAROLINA...

CITY           SKY/WX    TMP DP  RH WIND       PRES   REMARKS
N CHARLESTON   CLOUDY    70  66  87 CALM      30.07S
WATERFRONT PRK   N/A     78  71  79 VRB3      30.05R
JOHNS ISLAND     N/A     72  70  94 CALM      30.07S
PINOPOLIS        N/A     79  68  69 CALM      30.00R
MONCKS CORNER  FAIR      66  66 100 CALM      30.08S
SUMMERVILLE    FAIR      68  68 100 CALM      30.09R
BEAUFORT MCAS  CLOUDY    74  71  91 N3        30.06F
BEAUFORT ARPT  FAIR      73  70  88 CALM      30.06S
HILTON HEAD IS CLOUDY    73  73 100 CALM      30.06F
WALTERBORO     CLOUDY    66  64  94 CALM      30.08S
ALLENDALE      FAIR      70  70 100 CALM      30.07S

...SOUTHERN MIDLANDS AND PEE DEE...

CITY           SKY/WX    TMP DP  RH WIND       PRES   REMARKS
GEORGETOWN     FAIR      70  68  94 N3        30.09R
KINGSTREE      FAIR      66  61  82 CALM      30.09S
ORANGEBURG     CLOUDY    70  66  87 NE5       30.09R
BARNWELL       FAIR      70  70 100 CALM      30.08S
AIKEN          FAIR      66  61  82 NE5       30.13S
MANNING        FAIR      66  66 100 CALM      30.09S
COLUMBIA       PTCLDY    73  58  59 E5        30.09S
SUMTER         CLEAR     68  59  74 CALM      30.08R
FLORENCE       CLEAR     66  59  78 CALM      30.10R
MYRTLE BEACH   NOT AVBL
N MYRTLE BEACH CLEAR     70  66  87 NE7       30.08R

$$

GAZ063-065-086>088-099>101-113>116-118-119-134>141-150-280800-
...SOUTHEAST GEORGIA...

CITY           SKY/WX    TMP DP  RH WIND       PRES   REMARKS
SAVANNAH ARPT  CLOUDY    72  69  90 N3        30.06F
HUNTER AAF     CLOUDY    73  69  89 CALM      30.03F
FORT STEWART   PTCLDY    70  68  91 CALM      30.04S
STATESBORO     CLOUDY    71  32  23 CALM      30.07S
SYLVANIA       CLOUDY    71  71 100 CALM      30.08F
CLAXTON        FAIR      69  68  98 CALM      30.07S

...CSRA...CENTRAL AND FAR SOUTHEAST GEORGIA...

CITY           SKY/WX    TMP DP  RH WIND       PRES   REMARKS
THOMSON        CLOUDY    65  63  91 CALM      30.14S
AUGUSTA-BUSH   PTCLDY    68  66  93 CALM      30.07S
AUGUSTA-DANIEL PTCLDY    74  65  73 CALM      30.09S
SWAINSBORO     FAIR      70  70 100 CALM      30.08S
VIDALIA        MOCLDY    72  70  94 CALM      30.08R
EASTMAN        FAIR      69  69 100 CALM      30.09F
HAZLEHURST     FAIR      72  72 100 CALM      30.06S
ALMA           CLOUDY    69  67  93 N3        30.05F FOG
WAYCROSS       PTCLDY    72  72 100 CALM      30.05S
JESUP          FAIR      70  66  88 CALM      30.06S
BAXLEY         FAIR      70  70 100 CALM      30.06S
BRUNSWICK      CLOUDY    72  70  94 CALM      30.06S
SAINT SIMONS   CLOUDY    74  72  93 N3        30.04S

$$

SCZ027-028-034-036>038-045-046-048>050-GAZ119-141-280800-
...LAKE AND SUPPLEMENTAL COASTAL OBSERVATIONS...

STATION/POSITION TIME  TEMP    WIND        PRES    WAVE   SWELL
                       AIR SEA DIR/SP/G            HT/PER HT/PER/DIR
                 (UTC) (F)     (DEG/KT/KT) (MB)    (FT/S) (FT/S/D)
WINYAH BAY       0545   72     320/  4     1018.0
LAKE MURRAY      0620   72      80/  1/  4 1018.3
ACE BASIN NERRS  NOT AVBL
FORT PULASKI     0636           20/  7/  9   N/A
SAPELO ISLAND    0600   75      10/  4     1017.0

$$

ANZ835-935-AMZ111-154-330-350-352-354-370-450-454-472-280800-
...C-MAN AND BUOY OBSERVATIONS...

STATION/POSITION TIME  TEMP    WIND        PRES    WAVE   SWELL
                       AIR SEA DIR/SP/G            HT/PER HT/PER/DIR
                 (UTC) (F)     (DEG/KT/KT) (MB)    (FT/S) (FT/S/D)
BUOY 41004       0650   80 81   20/  8/ 10 1017.5R   2/ 7   2/110/ 7
BUOY 41008       0550   79 82   40/  2/  4 1017.0    1/ 7   2/130/ 7
FOLLY BEACH CMAN 0600   78     340/  3/  5 1018.6R
CAPERS NEARSHORE 0608   85 83   10/  4/  6 1017.9R
FRIPP NEARSHORE  0608   80 83   90/  4/  6 1017.5R


STATION/POSITION TIME  TEMP    WIND        PRES    WAVE   SWELL
                       AIR SEA DIR/SP/G            HT/PER HT/PER/DIR
                 (UTC) (F)     (DEG/KT/KT) (MB)    (FT/S) (FT/S/D)
5E ST. MARYS GA  0600      80                N/A     2/ 8
FRYING PAN BUOY  0650   79 80  320/  4/  6 1018.0R   2/ 5   2/150/ 5
BUOY 41025       0650   78 81  360/ 14/ 16 1017.7R   2/ 8   2/120/ 8
CAPE LOOKOUT NC  0600   76     350/ 13/ 15 1018.0R
BUOY 41002       0650   79 80  220/  6/  8 1017.1F   3/ 5   3/200/ 5
BUOY 41010       0650   82 83  190/  6/  8 1016.0F   3/ 6   3/120/ 6
ST AUGUSTINE FL  0700   76 79   20/  2/  3 1016.7F


$$




USA.gov is the U.S. government's official web portal to all federal, state and local government web resources and services.